CW1663 Weather Reports


Display with metric or nautical units.
time (UTC)temp
F
wind
direction
speed
MPH
gust
MPH
rain 1hr
in
rain 24hr
in
rain mn
in
humidity
%
barometer
mb
20260509004304 50 41 2.0 3.0 0.00 0.01 0.00 80 1017.4
20260509003804 50 51 2.0 3.0 0.00 0.01 0.00 80 1017.4
20260509002306 50 34 2.0 3.0 0.00 0.01 0.00 80 1017.3
20260509001304 50 46 2.0 3.0 0.00 0.01 0.00 80 1017.5
20260509000304 50 55 2.0 3.0 0.00 0.01 0.00 80 1017.5
20260508233804 50 38 2.0 5.0 0.00 0.01 0.00 79 1017.5
20260508233304 50 38 2.0 3.0 0.00 0.01 0.00 79 1017.6
20260508232804 50 36 2.0 3.0 0.00 0.01 0.00 78 1017.6
20260508232307 50 32 2.0 3.0 0.00 0.01 0.00 78 1017.6
20260508231304 51 20 2.0 3.0 0.00 0.01 0.00 78 1017.6
20260508230813 51 50 1.0 3.0 0.00 0.01 0.00 78 1017.6
20260508230304 51 52 2.0 3.0 0.00 0.01 0.00 78 1017.7
20260508224804 51 46 1.0 3.0 0.00 0.01 0.01 77 1017.7
20260508224304 51 46 1.0 3.0 0.00 0.01 0.01 77 1017.7
20260508221304 51 38 1.0 3.0 0.00 0.01 0.01 77 1017.7
20260508220804 52 39 2.0 3.0 0.00 0.01 0.01 77 1017.7
20260508214804 52 46 0.0 0.0 0.00 0.01 0.01 77 1017.7
20260508212306 53 42 0.0 0.0 0.00 0.01 0.01 75 1017.5
20260508210304 53 97 0.0 0.0 0.01 0.01 0.01 75 1017.5
20260508205804 53 97 0.0 0.0 0.01 0.01 0.01 75 1017.5
20260508205306 53 97 0.0 0.0 0.01 0.01 0.01 75 1017.5
20260508204805 53 98 0.0 0.0 0.01 0.01 0.01 75 1017.5
20260508203804 53 98 0.0 0.0 0.01 0.01 0.01 74 1017.4
20260508202804 54 98 0.0 0.0 0.01 0.01 0.01 74 1017.3
20260508201804 54 99 0.0 0.0 0.01 0.01 0.01 73 1017.2
20260508200804 49 132 0.0 0.0 0.00 0.00 0.00 85 1015.7
20260508200304 49 132 0.0 0.0 0.00 0.00 0.00 85 1015.7
20260508194304 49 132 0.0 0.0 0.00 0.00 0.00 85 1015.7
20260508193804 49 132 0.0 0.0 0.00 0.00 0.00 85 1015.7
20260508191804 49 132 0.0 0.0 0.00 0.00 0.00 85 1015.7
20260508190804 49 132 0.0 0.0 0.00 0.00 0.00 85 1015.7
20260508185804 49 132 0.0 0.0 0.00 0.00 0.00 85 1015.7
20260508184804 49 132 0.0 0.0 0.00 0.00 0.00 85 1015.7
20260508184304 49 132 0.0 0.0 0.00 0.00 0.00 85 1015.7
20260508183804 49 132 0.0 0.0 0.00 0.00 0.00 85 1015.7
20260508182804 49 132 0.0 0.0 0.00 0.00 0.00 85 1015.7
20260508174804 49 132 0.0 0.0 0.00 0.00 0.00 85 1015.7
20260508173804 49 132 0.0 0.0 0.00 0.00 0.00 85 1015.7
20260508173304 49 132 0.0 0.0 0.00 0.00 0.00 85 1015.7
20260508172307 49 132 0.0 0.0 0.00 0.00 0.00 85 1015.7
20260508171804 49 132 0.0 0.0 0.00 0.00 0.00 85 1015.7
20260508170804 49 132 0.0 0.0 0.00 0.00 0.00 85 1015.7
20260508170304 49 132 0.0 0.0 0.00 0.00 0.00 85 1015.7
20260508165306 49 132 0.0 0.0 0.00 0.00 0.00 85 1015.7
20260508164304 49 132 0.0 0.0 0.00 0.00 0.00 85 1015.7
20260508163804 49 132 0.0 0.0 0.00 0.00 0.00 85 1015.7
20260508162306 49 132 0.0 0.0 0.00 0.00 0.00 85 1015.7
20260508155804 49 132 0.0 0.0 0.00 0.00 0.00 85 1015.7
20260508155306 49 132 0.0 0.0 0.00 0.00 0.00 85 1015.7
20260508154304 49 132 0.0 0.0 0.00 0.00 0.00 85 1015.7
20260508153804 49 132 0.0 0.0 0.00 0.00 0.00 85 1015.7
20260508153304 49 132 0.0 0.0 0.00 0.00 0.00 85 1015.7
20260508150804 49 132 0.0 0.0 0.00 0.00 0.00 85 1015.7
20260508144804 49 132 0.0 0.0 0.00 0.00 0.00 85 1015.7
20260508144304 49 132 0.0 0.0 0.00 0.00 0.00 85 1015.7
20260508143804 49 132 0.0 0.0 0.00 0.00 0.00 85 1015.7
20260508142306 49 132 0.0 0.0 0.00 0.00 0.00 85 1015.7
20260508140303 49 132 0.0 0.0 0.00 0.00 0.00 85 1015.7
20260508133304 49 132 0.0 0.0 0.00 0.00 0.00 85 1015.7
20260508130804 49 132 0.0 0.0 0.00 0.00 0.00 85 1015.7
20260508130304 49 132 0.0 0.0 0.00 0.00 0.00 85 1015.7
20260508125306 49 132 0.0 0.0 0.00 0.00 0.00 85 1015.7
20260508123804 49 132 0.0 0.0 0.00 0.00 0.00 85 1015.7
20260508122306 49 132 0.0 0.0 0.00 0.00 0.00 85 1015.7
20260508115306 49 132 0.0 0.0 0.00 0.00 0.00 85 1015.7
20260508114804 49 132 0.0 0.0 0.00 0.00 0.00 85 1015.7
20260508113804 49 132 0.0 0.0 0.00 0.00 0.00 85 1015.7
20260508110304 49 132 0.0 0.0 0.00 0.00 0.00 85 1015.7
20260508104304 49 132 0.0 0.0 0.00 0.00 0.00 85 1015.7
20260508102804 49 132 0.0 0.0 0.00 0.00 0.00 85 1015.7
20260508102306 49 132 0.0 0.0 0.00 0.00 0.00 85 1015.7
20260508095804 49 132 0.0 0.0 0.00 0.00 0.00 85 1015.7
20260508094804 49 132 0.0 0.0 0.00 0.00 0.00 85 1015.7
20260508094304 49 132 0.0 0.0 0.00 0.00 0.00 85 1015.7
20260508092804 49 132 0.0 0.0 0.00 0.00 0.00 85 1015.7
20260508092312 49 132 0.0 0.0 0.00 0.00 0.00 85 1015.7
20260508091304 49 132 0.0 0.0 0.00 0.00 0.00 85 1015.7
20260508090304 49 132 0.0 0.0 0.00 0.00 0.00 85 1015.7
20260508085804 49 132 0.0 0.0 0.00 0.00 0.00 85 1015.7
20260508085307 49 132 0.0 0.0 0.00 0.00 0.00 85 1015.7
20260508084804 49 132 0.0 0.0 0.00 0.00 0.00 85 1015.7
20260508084304 49 132 0.0 0.0 0.00 0.00 0.00 85 1015.7
20260508083804 49 132 0.0 0.0 0.00 0.00 0.00 85 1015.7
20260508083304 49 132 0.0 0.0 0.00 0.00 0.00 85 1015.7
20260508082804 49 132 0.0 0.0 0.00 0.00 0.00 85 1015.7
20260508081304 49 132 0.0 0.0 0.00 0.00 0.00 85 1015.7
20260508080804 49 132 0.0 0.0 0.00 0.00 0.00 85 1015.7
20260508080304 49 132 0.0 0.0 0.00 0.00 0.00 85 1015.7
20260508075804 49 132 0.0 0.0 0.00 0.00 0.00 85 1015.7
20260508074805 49 132 0.0 0.0 0.00 0.00 0.00 85 1015.7
20260508074304 49 132 0.0 0.0 0.00 0.00 0.00 85 1015.7
20260508073804 49 132 0.0 0.0 0.00 0.00 0.00 85 1015.7
20260508071304 49 132 0.0 0.0 0.00 0.00 0.00 85 1015.7
20260508070804 49 132 0.0 0.0 0.00 0.00 0.00 85 1015.7
20260508070304 49 132 0.0 0.0 0.00 0.00 0.00 85 1015.7
20260508065307 49 132 0.0 0.0 0.00 0.00 0.00 85 1015.7
20260508064803 49 132 0.0 0.0 0.00 0.00 0.00 85 1015.7
20260508063804 49 132 0.0 0.0 0.00 0.00 0.00 85 1015.7
20260508063304 49 132 0.0 0.0 0.00 0.00 0.00 85 1015.7
20260508062804 49 132 0.0 0.0 0.00 0.00 0.00 85 1015.7
20260508061306 49 132 0.0 0.0 0.00 0.00 0.00 85 1015.7
20260508055804 49 132 0.0 0.0 0.00 0.00 0.00 85 1015.7
20260508054804 49 132 0.0 0.0 0.00 0.00 0.00 85 1015.7
20260508053804 49 132 0.0 0.0 0.00 0.00 0.00 85 1015.7
20260508052804 49 132 0.0 0.0 0.00 0.00 0.00 85 1015.7
20260508052306 49 132 0.0 0.0 0.00 0.00 0.00 85 1015.7
20260508045306 49 132 0.0 0.0 0.00 0.00 0.00 85 1015.7
20260508044304 49 132 0.0 0.0 0.00 0.00 0.00 85 1015.7
20260508043804 49 132 0.0 0.0 0.00 0.00 0.00 85 1015.7
20260508042804 49 132 0.0 0.0 0.00 0.00 0.00 85 1015.7
20260508041304 49 132 0.0 0.0 0.00 0.00 0.00 85 1015.7
20260508040304 49 132 0.0 0.0 0.00 0.00 0.00 85 1015.7
20260508035804 49 132 0.0 0.0 0.00 0.00 0.00 85 1015.7
20260508035306 49 132 0.0 0.0 0.00 0.00 0.00 85 1015.7
20260508034804 49 132 0.0 0.0 0.00 0.00 0.00 85 1015.7
20260508033804 49 132 0.0 0.0 0.00 0.00 0.00 85 1015.7
20260508032804 49 132 0.0 0.0 0.00 0.00 0.00 85 1015.7
20260508031804 49 132 0.0 0.0 0.00 0.00 0.00 85 1015.7
20260508031304 49 132 0.0 0.0 0.00 0.00 0.00 85 1015.7
20260508030804 49 132 0.0 0.0 0.00 0.00 0.00 85 1015.7
20260508024804 49 132 0.0 0.0 0.00 0.00 0.00 85 1015.7
20260508024304 49 132 0.0 0.0 0.00 0.00 0.00 85 1015.7
20260508023804 49 132 0.0 0.0 0.00 0.00 0.00 85 1015.7
20260508022804 49 132 0.0 0.0 0.00 0.00 0.00 85 1015.7
20260508020303 49 132 0.0 0.0 0.00 0.00 0.00 85 1015.7
20260508015804 49 132 0.0 0.0 0.00 0.00 0.00 85 1015.7
20260508014304 49 132 0.0 0.0 0.00 0.00 0.00 85 1015.7
20260508013304 49 132 0.0 0.0 0.00 0.00 0.00 85 1015.7
20260508011804 49 132 0.0 0.0 0.00 0.00 0.00 85 1015.7
20260508010804 49 132 0.0 0.0 0.00 0.00 0.00 85 1015.7
20260508005804 49 132 0.0 0.0 0.00 0.00 0.00 85 1015.7
20260508005306 49 132 0.0 0.0 0.00 0.00 0.00 85 1015.7